Location: Beneden-Haastrecht
(52.0012°N, 4.7557°E)
Time: 03:18:38
(UTC+00:00)

Cosmos 1302 Rocket - Pass Details

Date: 24 October 2020
Orbit: 756 x 777 km, 74.0° (Epoch: 27 November)

Event Time Altitude Azimuth Distance (km) Brightness Sun altitude
Rises 18:21:51 0° 194° (SSW) 3,225 7.4 -18.2°
Reaches altitude 10° 18:24:13 10° 192° (SSW) 2,306 6.6 -18.6°
Maximum altitude 18:29:25 67° 111° (ESE) 838 3.9 -19.4°
Drops below altitude 10° 18:34:40 10° 29° (NNE) 2,334 6.3 -20.2°
Enters shadow 18:35:13 - 29° (NNE) 2,546 6.5 -20.3°
